When you browse on this site, cookies collect data to enhance your experience and personalize the content and advertising you see.
Visit our Privacy Policy to learn more. By continuing to use the site, you agree to this use of cookies and data.
  • In Hungary
  • List of Countries
  • For 7 days
  • Water Temperature
  • Satellite Maps
  • Weather Map
  • News
  • Weather Widgets
  • user-avatar
    Login

    Hourly Weather Coro

    Today, 18 January, Friday

    Time Temperature Precipitation Wind Pressure Humidity
    00:00 +26°C° 0 mm 6 mps 757 mmHg 88%
    01:00 +26°C° 0 mm 6 mps 757 mmHg 89%
    02:00 +26°C° 0 mm 6 mps 757 mmHg 89%
    03:00 +26°C° 0 mm 6 mps 756 mmHg 90%
    04:00 +26°C° 0 mm 6 mps 756 mmHg 91%
    05:00 +26°C° 0 mm 6 mps 756 mmHg 90%
    06:00 +26°C° 0 mm 6 mps 757 mmHg 89%
    07:00 +26°C° 0 mm 6 mps 757 mmHg 89%
    08:00 +28°C° 0 mm 6 mps 757 mmHg 82%
    09:00 +29°C° 0 mm 6 mps 757 mmHg 76%
    10:00 +30°C° 0 mm 6 mps 758 mmHg 69%
    11:00 +32°C° 0 mm 6 mps 757 mmHg 66%
    12:00 +33°C° 0 mm 7 mps 756 mmHg 62%
    13:00 +34°C° 0 mm 7 mps 756 mmHg 59%
    14:00 +33°C° 0 mm 7 mps 755 mmHg 61%
    15:00 +32°C° 0 mm 8 mps 755 mmHg 63%
    16:00 +32°C° 0 mm 8 mps 754 mmHg 65%
    17:00 +31°C° 0 mm 8 mps 755 mmHg 71%
    18:00 +28°C° 0 mm 7 mps 755 mmHg 77%
    19:00 +27°C° 0 mm 7 mps 756 mmHg 84%
    20:00 +27°C° 0 mm 7 mps 756 mmHg 85%
    21:00 +27°C° 0 mm 7 mps 756 mmHg 87%
    22:00 +26°C° 0 mm 6 mps 757 mmHg 89%
    23:00 +26°C° 0 mm 6 mps 757 mmHg 90%

    Tomorrow, 19 January, Saturday

    Time Temperature Precipitation Wind Pressure Humidity
    00:00 +26°C° 0 mm 6 mps 757 mmHg 90%
    01:00 +26°C° 0 mm 6 mps 756 mmHg 91%
    02:00 +26°C° 0 mm 6 mps 756 mmHg 91%
    03:00 +26°C° 0 mm 6 mps 756 mmHg 92%
    04:00 +26°C° 0 mm 6 mps 756 mmHg 93%
    05:00 +26°C° 0 mm 6 mps 756 mmHg 91%
    06:00 +26°C° 0 mm 6 mps 757 mmHg 90%
    07:00 +26°C° 0 mm 6 mps 757 mmHg 88%
    08:00 +28°C° 0 mm 6 mps 757 mmHg 82%
    09:00 +29°C° 0 mm 6 mps 758 mmHg 76%
    10:00 +30°C° 0 mm 6 mps 758 mmHg 70%
    11:00 +32°C° 0 mm 6 mps 757 mmHg 64%
    12:00 +33°C° 0 mm 7 mps 756 mmHg 59%
    13:00 +35°C° 0 mm 7 mps 755 mmHg 53%
    14:00 +34°C° 0 mm 8 mps 755 mmHg 55%
    15:00 +34°C° 0 mm 8 mps 754 mmHg 56%
    16:00 +33°C° 0 mm 8 mps 754 mmHg 58%
    17:00 +31°C° 0 mm 8 mps 754 mmHg 66%
    18:00 +29°C° 0 mm 8 mps 755 mmHg 74%
    19:00 +27°C° 0 mm 7 mps 755 mmHg 82%
    20:00 +27°C° 0 mm 7 mps 756 mmHg 84%
    21:00 +26°C° 0 mm 7 mps 756 mmHg 86%
    22:00 +26°C° 0 mm 7 mps 757 mmHg 89%
    23:00 +26°C° 0 mm 7 mps 756 mmHg 89%

    Day after tomorrow, 20 January, Sunday

    Time Temperature Precipitation Wind Pressure Humidity
    00:00 +26°C° 0 mm 7 mps 756 mmHg 89%
    01:00 +26°C° 0 mm 6 mps 756 mmHg 89%
    02:00 +26°C° 0 mm 6 mps 756 mmHg 90%
    03:00 +26°C° 0 mm 6 mps 756 mmHg 90%
    04:00 +26°C° 0 mm 7 mps 755 mmHg 90%
    05:00 +26°C° 0 mm 7 mps 756 mmHg 89%
    06:00 +26°C° 0 mm 7 mps 756 mmHg 88%
    07:00 +27°C° 0 mm 7 mps 757 mmHg 87%
    08:00 +28°C° 0 mm 7 mps 757 mmHg 81%
    09:00 +29°C° 0 mm 7 mps 757 mmHg 75%
    10:00 +30°C° 0 mm 7 mps 758 mmHg 69%
    11:00 +32°C° 0 mm 7 mps 757 mmHg 65%
    12:00 +33°C° 0 mm 7 mps 756 mmHg 60%
    13:00 +34°C° 0 mm 7 mps 755 mmHg 56%
    14:00 +34°C° 0 mm 7 mps 755 mmHg 56%
    15:00 +34°C° 0 mm 8 mps 755 mmHg 57%
    16:00 +33°C° 0 mm 8 mps 754 mmHg 58%
    17:00 +32°C° 0 mm 8 mps 755 mmHg 65%
    18:00 +29°C° 0 mm 7 mps 755 mmHg 72%
    19:00 +27°C° 0 mm 7 mps 756 mmHg 79%
    20:00 +27°C° 0 mm 7 mps 756 mmHg 82%
    21:00 +26°C° 0 mm 6 mps 757 mmHg 86%
    22:00 +26°C° 0 mm 6 mps 757 mmHg 90%
    23:00 +26°C° 0 mm 6 mps 757 mmHg 90%

    21 January, Monday

    Time Temperature Precipitation Wind Pressure Humidity
    00:00 +26°C° 0 mm 6 mps 757 mmHg 90%
    01:00 +26°C° 0 mm 6 mps 756 mmHg 90%
    02:00 +26°C° 0 mm 6 mps 756 mmHg 90%
    03:00 +26°C° 0 mm 6 mps 756 mmHg 91%
    04:00 +26°C° 0 mm 6 mps 756 mmHg 91%
    05:00 +26°C° 0 mm 6 mps 757 mmHg 90%
    06:00 +26°C° 0 mm 6 mps 757 mmHg 89%
    07:00 +26°C° 0 mm 6 mps 758 mmHg 88%
    08:00 +28°C° 0 mm 6 mps 758 mmHg 80%
    09:00 +29°C° 0 mm 6 mps 758 mmHg 73%
    10:00 +32°C° 0 mm 6 mps 759 mmHg 65%
    11:00 +33°C° 0 mm 6 mps 758 mmHg 62%
    12:00 +33°C° 0 mm 6 mps 757 mmHg 59%
    13:00 +34°C° 0 mm 7 mps 757 mmHg 55%
    14:00 +34°C° 0 mm 7 mps 756 mmHg 56%
    15:00 +33°C° 0 mm 7 mps 756 mmHg 57%
    16:00 +33°C° 0 mm 8 mps 755 mmHg 59%
    17:00 +30°C° 0 mm 7 mps 756 mmHg 66%
    18:00 +29°C° 0 mm 7 mps 756 mmHg 74%
    19:00 +27°C° 0 mm 6 mps 757 mmHg 82%
    20:00 +27°C° 0 mm 6 mps 757 mmHg 85%
    21:00 +26°C° 0 mm 6 mps 758 mmHg 87%
    22:00 +26°C° 0 mm 6 mps 758 mmHg 90%
    23:00 +26°C° 0.1 mm 6 mps 758 mmHg 91%

    22 January, Tuesday

    Time Temperature Precipitation Wind Pressure Humidity
    00:00 +26°C° 0.1 mm 6 mps 758 mmHg 92%
    01:00 +26°C° 0.1 mm 6 mps 758 mmHg 93%
    02:00 +26°C° 0 mm 6 mps 757 mmHg 93%
    03:00 +26°C° 0 mm 6 mps 757 mmHg 93%
    04:00 +26°C° 0 mm 6 mps 757 mmHg 93%
    05:00 +26°C° 0 mm 6 mps 758 mmHg 92%
    06:00 +26°C° 0 mm 6 mps 758 mmHg 91%
    07:00 +26°C° 0 mm 6 mps 758 mmHg 90%
    08:00 +27°C° 0 mm 6 mps 759 mmHg 83%
    09:00 +29°C° 0 mm 6 mps 759 mmHg 77%
    10:00 +30°C° 0 mm 7 mps 759 mmHg 70%
    11:00 +30°C° 0.1 mm 7 mps 758 mmHg 67%
    12:00 +32°C° 0.1 mm 7 mps 758 mmHg 64%
    13:00 +33°C° 0.1 mm 7 mps 757 mmHg 60%
    14:00 +33°C° 0 mm 7 mps 756 mmHg 59%
    15:00 +33°C° 0 mm 8 mps 756 mmHg 57%
    16:00 +33°C° 0 mm 8 mps 756 mmHg 56%
    17:00 +31°C° 0 mm 8 mps 756 mmHg 65%
    18:00 +28°C° 0 mm 8 mps 757 mmHg 73%
    19:00 +27°C° 0 mm 7 mps 757 mmHg 82%
    20:00 +26°C° 0 mm 7 mps 757 mmHg 85%
    21:00 +26°C° 0 mm 7 mps 758 mmHg 87%
    22:00 +26°C° 0 mm 7 mps 758 mmHg 89%
    23:00 +26°C° 0 mm 7 mps 758 mmHg 90%

    23 January, Wednesday

    Time Temperature Precipitation Wind Pressure Humidity
    00:00 +24°C° 0 mm 7 mps 758 mmHg 91%
    01:00 +24°C° 0 mm 7 mps 757 mmHg 91%
    02:00 +24°C° 0 mm 7 mps 757 mmHg 91%
    03:00 +24°C° 0 mm 6 mps 757 mmHg 91%
    04:00 +24°C° 0 mm 6 mps 757 mmHg 91%
    05:00 +24°C° 0 mm 6 mps 757 mmHg 90%
    06:00 +24°C° 0 mm 7 mps 758 mmHg 89%
    07:00 +24°C° 0 mm 7 mps 758 mmHg 87%
    08:00 +28°C° 0 mm 7 mps 758 mmHg 76%
    09:00 +30°C° 0 mm 7 mps 759 mmHg 65%
    10:00 +33°C° 0 mm 7 mps 759 mmHg 53%
    11:00 +34°C° 0 mm 8 mps 758 mmHg 49%
    12:00 +35°C° 0 mm 8 mps 757 mmHg 46%
    13:00 +37°C° 0 mm 9 mps 756 mmHg 42%
    14:00 +35°C° 0 mm 9 mps 756 mmHg 46%
    15:00 +34°C° 0 mm 9 mps 755 mmHg 49%
    16:00 +33°C° 0 mm 9 mps 755 mmHg 53%
    17:00 +31°C° 0 mm 9 mps 755 mmHg 61%
    18:00 +28°C° 0 mm 8 mps 756 mmHg 70%
    19:00 +27°C° 0 mm 8 mps 756 mmHg 78%
    20:00 +27°C° 0 mm 8 mps 757 mmHg 80%
    21:00 +26°C° 0 mm 8 mps 757 mmHg 83%
    22:00 +26°C° 0 mm 8 mps 757 mmHg 85%
    23:00 +26°C° 0 mm 7 mps 757 mmHg 86%
    Show more